Temp_Advection
nan nan nan nan nan nan nan nan nan nan nan nan nan nan nan nan nan nan nan nan nan nan nan nan nan nan nan nan nan nan nan nan nan nan nan nan nan nan nan nan nan nan nan nan nan nan nan nan nan
nan 0 -0 -0 -0 0 -0 -0 -0 -0 0 -0 -0 -0 -0 -0 -0 0 0 0 1 1 1 1 1 1 1 1 0 -0 0 0 0 0 0 0 -0 -0 -0 -0 -0 -0 -0 -0 -0 -0 -0 0 nan
nan 0 -0 -1 0 -0 -0 -0 -0 -0 -0 0 -0 -1 -0 -0 -0 -0 -0 -0 0 0 0 0 1 1 0 0 0 0 0 0 0 0 0 0 -0 -0 -0 -0 -0 -0 -0 -0 -0 -0 -0 0 nan
nan -0 -0 -0 -0 -0 -0 -0 -0 -0 0 -0 -0 -0 -0 -0 -0 -0 0 0 0 -0 0 0 0 1 1 0 0 0 0 0 0 0 0 0 0 -0 0 -0 -0 -0 -0 -0 0 -0 -0 0 nan
nan -0 -0 -0 -0 -0 0 -0 -0 -0 -0 -0 -0 -0 -0 0 0 0 1 1 1 1 1 1 1 1 1 1 0 0 0 0 0 -0 0 0 0 0 0 -0 -0 -0 -0 -0 0 0 -0 -0 nan
nan -0 -0 -0 -0 -0 -0 0 -0 0 0 -0 -1 -0 -0 0 0 0 0 1 1 0 1 0 1 1 1 1 1 0 0 -0 0 0 0 0 0 -0 0 0 -0 0 -0 -0 -0 -0 -0 -0 nan
nan -0 -0 -0 -0 -0 0 0 -0 0 0 -0 -0 -0 -0 0 0 0 -0 -0 -0 -0 0 0 1 1 1 1 1 1 1 0 0 0 0 0 0 0 -0 -0 -0 0 0 -0 -0 -0 -0 -0 nan
nan -0 -0 -0 -0 -0 -0 0 -0 -0 -0 -0 -0 -0 -0 0 0 -0 0 0 0 0 -0 -1 -0 1 1 1 1 0 0 0 0 0 0 0 0 0 0 0 -0 -0 0 0 -0 -0 0 -0 nan
nan -0 -0 -0 -0 -0 -0 0 -0 -0 -0 -1 -0 0 -0 0 0 0 0 1 1 0 -0 -0 -0 -0 -0 0 1 0 0 0 0 0 0 0 0 0 0 0 -0 -0 -0 0 0 0 -0 -0 nan
nan -0 -1 -0 -0 0 -0 -0 -0 -1 -1 -0 0 0 1 1 0 0 -0 -0 0 0 0 -0 -0 -0 0 0 -0 0 0 0 0 0 0 0 0 0 0 0 0 0 0 0 0 0 0 -0 nan
nan -0 -0 -1 0 0 -0 -0 -0 -1 -0 -0 -0 -0 -0 0 0 -0 0 -0 -1 -0 1 -0 -0 -0 -0 0 0 0 0 0 0 0 0 0 -0 -0 0 0 0 0 0 0 0 0 0 -0 nan
nan -0 -1 -0 0 -0 -0 0 -0 0 -0 -1 -0 -0 -1 -0 -0 -1 -1 -0 -1 -1 -1 -0 -0 -0 0 -0 0 0 0 0 0 0 0 0 -0 -0 0 0 0 0 0 0 0 0 0 0 nan
nan -0 -0 0 0 -0 -0 -0 -0 -0 1 0 -0 0 -1 -1 -1 -0 -1 -0 -0 -0 -1 -1 -0 -0 -0 0 0 0 0 -0 -0 -0 -0 0 0 0 0 0 0 0 0 0 0 0 0 -0 nan
nan 0 0 0 0 0 -0 0 -0 -1 0 0 0 1 0 -1 -1 -1 -1 -0 -0 -0 -0 -0 -0 -0 -0 0 0 0 -0 -0 -0 0 0 0 0 0 0 0 0 0 0 0 0 0 0 0 nan
nan -0 -0 0 0 0 -0 -0 -0 -1 -1 -1 -0 0 1 0 -0 -1 -1 -0 -0 0 0 -0 0 -0 0 0 -0 0 -0 0 0 -0 0 0 0 0 0 0 0 -0 0 0 0 0 0 -0 nan
nan -0 0 -0 -0 0 -0 0 -0 -1 -1 -1 -1 -0 0 0 0 0 -0 -0 -0 0 0 0 0 0 -0 -0 0 -0 -0 0 -0 -0 0 0 0 0 -0 -0 -0 0 0 0 0 0 0 0 nan
nan 0 -0 0 0 -0 -0 -0 0 -0 -0 -1 -1 -1 -0 -0 -0 -0 -0 -0 0 0 0 0 -0 -0 -0 0 0 0 0 -0 -0 0 0 0 -0 -0 -0 -0 0 0 0 0 0 0 0 0 nan
nan 0 0 0 0 -0 0 -0 -0 0 0 -0 -0 -1 -1 -1 -1 -0 -0 0 0 0 0 0 -0 -0 0 0 0 -0 -0 -0 0 0 0 -0 -0 0 0 0 0 0 0 0 0 0 0 0 nan
nan 0 0 0 0 -0 0 -0 -0 0 -0 -0 -0 -0 -1 -0 1 1 0 0 0 -0 0 0 0 0 0 -0 -0 -1 -0 0 0 0 0 0 0 0 0 0 0 0 0 0 1 1 0 0 nan
nan 0 -0 -0 -0 0 0 -0 0 -0 -0 -1 -0 -1 -1 -0 0 -0 -0 0 -0 0 -0 -0 -0 -0 -0 -0 -0 -0 0 1 0 0 0 0 0 0 0 0 -0 -0 -0 0 0 0 0 0 nan
nan -0 0 -0 -0 -0 -0 -0 -0 -0 -0 0 -0 -0 -0 -1 0 -0 -0 -0 -0 0 -1 -1 -1 -0 -0 0 -0 0 0 0 -0 -0 0 0 0 0 0 -0 -0 -0 0 -0 -0 -0 0 0 nan
nan 0 -0 0 -0 -0 -0 0 -0 0 -0 -0 -0 -0 -0 0 -0 -0 -0 -1 -0 -0 -0 -0 0 1 1 0 -0 -0 0 0 -0 0 0 0 1 0 -0 -0 -0 -0 0 0 -0 0 0 0 nan
nan 0 -0 -0 -0 0 -0 -0 0 0 -1 -1 -1 -1 -1 -1 -0 -0 -1 -0 1 0 0 1 1 0 0 -0 -0 0 1 0 0 1 1 1 0 0 0 0 0 -0 -0 -0 0 0 -0 -0 nan
nan -0 -1 -0 -0 -0 -0 -0 0 -0 -1 -1 0 -0 -1 0 -0 -0 1 1 0 -0 0 1 -0 0 0 -0 0 1 1 1 1 1 0 0 1 0 1 0 0 -0 -0 -0 0 0 0 0 nan
nan -0 -0 0 -0 -0 0 -0 -0 -0 -0 -0 -0 -2 -0 -0 0 0 0 -0 -1 -0 0 -0 -0 0 1 0 0 0 1 1 0 1 1 1 1 1 1 0 0 -0 -0 0 0 0 0 -0 nan
nan -0 -0 0 0 -0 -0 -0 -0 -0 -0 -0 -0 -1 0 1 1 -1 -0 -0 -1 -0 0 -0 -0 1 1 1 -0 0 1 1 0 1 1 1 1 1 0 0 0 -0 0 0 0 0 0 0 nan
nan -0 -0 -1 0 0 -0 -0 -0 -0 0 0 1 1 0 0 -0 0 -0 -0 -0 0 1 -0 0 2 0 -1 -0 1 1 1 1 1 1 1 0 0 1 1 0 0 0 0 0 0 0 0 nan
nan -0 -0 0 0 0 -0 -0 -0 -0 0 -1 0 -0 -0 0 0 0 -0 0 0 1 0 0 1 -0 0 1 2 1 1 1 1 1 1 1 1 1 1 0 0 0 0 0 1 1 0 0 nan
nan 0 -0 -0 -0 0 0 -0 -0 -0 -0 0 0 -1 -0 0 0 -0 -0 0 1 0 0 1 1 0 1 1 1 1 2 1 1 1 1 1 1 1 0 0 0 0 -0 0 0 0 0 0 nan
nan nan nan nan nan nan nan nan nan nan nan nan nan nan nan nan nan nan nan nan nan nan nan nan nan nan nan nan nan nan nan nan nan nan nan nan nan nan nan nan nan nan nan nan nan nan nan nan nan
Wind_Speed
3 3 0 0 4 5 3 6 4 7 4 6 8 9 9 5 2 2 7 30 31 36 35 31 30 28 27 26 24 19 19 19 20 21 24 25 24 26 28 29 29 30 29 27 24 22 20 19 21
2 2 3 2 4 2 5 4 5 4 6 10 11 8 9 5 4 6 20 22 29 35 34 32 29 29 28 26 25 21 18 18 21 23 24 23 24 27 29 29 29 28 29 28 25 21 19 19 17
3 6 3 4 3 4 4 5 4 1 4 1 2 10 4 4 4 21 13 19 35 34 33 32 31 30 28 25 23 21 19 20 22 23 23 23 25 27 28 28 27 26 26 26 25 22 17 17 17
5 4 5 3 4 7 6 7 6 2 4 10 6 6 8 3 11 11 17 20 35 34 33 31 30 29 27 25 22 20 19 21 22 21 21 21 24 26 26 26 24 24 24 23 22 21 17 16 15
7 4 2 1 5 5 2 7 2 4 5 10 1 4 6 6 3 10 21 30 29 25 26 27 28 27 27 25 22 20 19 20 20 20 19 21 24 25 24 23 22 21 20 19 17 15 14 13 14
5 2 4 2 5 5 3 8 2 2 8 5 9 7 4 13 6 14 24 26 23 20 23 22 26 28 28 27 22 19 18 20 18 18 19 22 23 23 21 20 19 18 16 14 13 13 10 9 13
6 4 3 3 5 3 2 2 3 1 1 3 10 4 5 12 14 13 25 25 22 10 16 22 30 34 37 24 22 18 14 12 16 18 19 21 22 21 20 17 16 15 14 11 10 9 8 7 8
4 3 0 3 4 5 3 5 8 4 4 4 7 6 5 20 13 18 15 19 22 20 20 30 31 40 28 22 24 14 10 16 18 18 19 20 19 19 17 15 14 14 12 9 6 5 3 3 7
4 4 3 4 4 5 3 2 3 8 8 6 5 13 24 20 22 17 25 27 26 19 11 13 6 11 35 30 16 14 15 18 19 20 19 19 18 17 16 14 12 11 8 6 4 1 3 3 5
4 4 6 6 2 4 2 3 10 6 11 8 18 23 26 26 21 25 31 29 26 27 24 26 39 40 31 24 18 16 18 19 20 21 20 17 16 15 14 12 9 8 8 5 1 1 3 5 5
5 4 5 8 10 5 3 5 4 14 4 7 28 30 28 23 22 28 27 30 23 20 26 29 26 23 23 21 20 21 23 22 21 19 18 14 13 12 11 8 7 6 4 2 1 2 3 3 5
2 12 10 8 9 5 5 5 3 4 4 21 28 28 24 24 22 19 25 24 23 22 26 29 20 21 21 20 20 22 23 21 19 17 13 11 10 9 8 8 6 6 4 3 3 4 5 7 9
3 6 9 20 13 7 11 6 6 7 19 32 29 28 26 28 26 17 30 29 26 24 25 27 21 21 21 23 24 26 23 18 16 14 11 8 7 6 7 9 8 7 7 5 6 8 8 9 10
9 8 6 7 12 10 7 4 5 11 28 28 26 31 29 30 27 28 34 31 29 27 25 25 23 22 24 23 22 22 21 17 16 13 10 10 10 8 9 8 7 6 5 7 7 7 8 10 11
7 2 4 1 8 4 12 4 6 24 27 29 23 32 30 30 25 32 32 31 29 27 25 25 24 25 25 24 23 22 21 19 16 12 13 13 11 9 9 8 7 6 6 7 9 11 12 12 13
3 5 4 0 6 4 4 2 3 24 29 25 24 27 29 26 26 28 28 27 27 26 28 26 27 26 25 23 24 23 21 18 16 10 14 14 12 11 11 8 5 6 7 10 11 11 12 12 14
6 3 3 2 5 6 1 2 6 25 23 23 27 28 27 25 29 29 28 27 26 28 29 29 27 25 23 22 21 19 22 20 17 15 14 13 13 11 8 5 4 7 8 11 12 13 14 15 13
3 2 2 5 4 5 6 6 8 27 21 26 27 27 27 30 31 28 27 28 26 28 27 29 28 25 25 27 23 23 19 18 16 14 15 14 12 10 7 5 5 8 12 15 16 16 16 14 14
5 1 2 4 6 3 7 7 13 20 19 21 27 31 32 33 31 31 30 28 29 28 27 28 29 28 30 31 29 25 18 16 17 18 15 15 14 10 5 5 8 12 15 18 19 18 17 17 17
1 4 5 5 3 5 7 3 1 9 14 25 31 33 37 37 35 36 35 32 31 29 31 32 31 31 32 30 28 24 17 18 19 18 17 15 13 10 8 7 9 13 18 21 21 20 20 20 17
4 1 3 4 3 5 7 4 3 3 4 16 27 36 37 39 41 40 39 38 36 38 33 36 38 35 34 32 29 22 18 21 22 21 20 17 15 13 9 10 12 16 19 19 19 19 18 16 16
5 2 4 3 1 3 3 3 6 6 10 7 21 25 37 40 39 40 42 42 39 40 33 33 36 38 37 34 32 27 25 26 26 23 22 19 15 13 12 13 15 17 18 17 18 17 14 12 10
8 5 4 1 3 5 1 4 6 6 11 15 21 31 37 41 43 43 46 45 42 40 38 36 37 38 36 34 32 30 30 28 26 25 23 20 19 17 15 15 16 15 13 14 15 13 11 9 10
2 2 7 5 3 2 3 5 4 6 19 21 24 29 39 40 43 43 45 44 44 42 40 40 39 37 35 35 35 36 35 30 30 28 26 24 21 18 16 14 13 11 12 19 16 12 12 13 15
3 5 2 2 3 4 2 2 8 8 10 13 16 32 36 38 43 38 42 45 46 46 44 42 39 38 36 39 39 36 36 33 33 31 30 26 21 17 16 13 10 15 24 16 12 11 13 15 14
3 6 5 3 3 3 3 4 6 5 12 18 20 23 28 30 38 40 43 44 48 44 45 43 41 37 36 37 39 39 37 39 36 33 28 24 21 17 12 9 15 21 13 11 12 13 13 12 14
1 2 3 6 3 3 3 6 10 7 2 3 8 12 17 22 28 38 40 42 45 44 46 44 39 41 36 38 36 36 34 38 38 33 29 26 22 16 13 17 20 11 12 12 12 13 13 13 14
4 5 2 3 2 3 4 4 5 7 6 6 5 13 15 15 22 31 38 39 41 42 43 45 36 33 29 34 35 35 33 33 36 34 33 27 22 20 16 8 7 13 11 12 20 12 11 12 16
0 2 4 4 4 4 1 5 7 7 4 7 7 12 16 18 21 27 31 35 39 36 39 42 42 40 35 34 37 38 36 34 35 32 28 24 20 15 7 8 10 8 12 16 12 11 12 15 20
4 5 5 4 4 2 3 6 5 8 5 8 12 12 9 20 23 25 32 38 37 37 38 39 38 34 37 37 36 37 33 31 33 31 29 27 21 15 11 9 7 10 9 12 11 11 11 14 17
Wind_Direction
319 328 171 125 61 65 254 261 282 311 7 50 94 96 106 63 86 218 148 167 174 167 164 169 170 167 163 159 151 144 139 134 132 131 130 125 119 116 114 110 107 102 98 96 99 96 89 82 82
18 80 115 80 84 78 268 260 262 238 152 114 67 75 45 67 41 131 150 159 172 166 168 171 170 168 163 158 152 148 140 135 133 134 130 124 122 121 119 116 111 103 96 92 93 96 90 82 80
100 113 61 78 111 204 257 273 254 328 51 98 110 56 59 48 103 149 173 170 172 171 172 172 172 166 161 154 147 143 140 138 134 136 131 128 126 125 122 118 112 106 99 95 94 94 90 88 81
118 103 62 82 242 248 223 248 237 344 81 56 94 57 73 16 118 167 163 173 175 172 174 174 169 165 159 151 143 141 139 137 134 136 129 129 129 129 126 122 116 105 99 96 94 97 90 85 83
102 93 74 315 265 255 285 333 282 41 81 37 92 62 65 63 164 168 163 169 177 177 173 173 169 166 156 142 137 138 136 132 133 131 128 133 134 133 131 123 113 104 99 96 93 82 73 74 75
90 96 63 241 261 282 54 9 20 63 114 86 84 83 74 124 135 157 165 167 171 164 168 163 163 161 150 135 135 129 135 131 126 133 136 138 138 134 129 120 112 105 101 96 85 75 68 56 56
121 97 203 252 278 273 256 11 94 344 16 64 122 85 98 115 145 154 159 158 148 127 149 147 166 161 130 132 136 117 99 127 144 140 139 140 137 132 124 118 112 106 104 95 84 75 76 51 23
123 87 209 259 269 253 233 148 121 111 69 85 122 142 137 140 157 150 168 164 162 148 121 108 103 114 117 115 109 109 155 152 150 143 138 138 132 125 124 124 117 115 114 117 107 100 72 8 346
140 64 251 249 211 266 164 167 100 107 105 49 58 143 145 155 149 153 157 153 153 144 134 137 157 143 137 127 121 158 158 154 148 143 140 134 139 140 142 138 135 136 139 144 133 72 331 324 334
141 149 233 225 218 241 171 242 136 87 91 67 94 127 145 146 152 151 159 144 145 122 110 128 122 126 143 157 158 157 159 153 148 140 137 136 136 140 141 151 153 154 173 165 163 288 293 312 328
183 210 218 253 249 236 151 341 60 114 91 168 134 140 142 148 156 155 163 159 145 143 135 137 140 142 151 162 166 164 158 150 148 148 150 152 149 148 156 163 162 178 164 205 245 262 241 290 310
245 243 218 265 238 164 134 137 88 155 163 156 149 146 155 158 152 165 162 166 162 158 157 161 150 159 169 166 166 163 157 158 157 154 152 156 157 166 170 183 188 188 190 218 221 264 284 289 302
212 273 292 233 196 111 126 93 88 70 139 140 141 147 147 140 152 154 155 154 146 143 146 165 176 173 173 171 166 163 162 166 169 159 158 168 181 197 201 193 190 218 242 257 270 282 293 306 311
274 295 253 204 170 148 124 103 107 119 147 144 150 158 147 158 159 165 168 163 161 163 163 170 175 174 173 167 170 171 173 168 170 170 169 196 211 221 205 209 210 221 231 267 286 297 309 306 314
297 39 50 33 160 124 125 58 76 148 152 153 164 169 163 165 176 179 176 176 174 178 172 170 170 168 171 174 174 180 182 180 182 184 197 204 217 208 214 212 210 220 260 292 306 312 311 312 313
48 37 52 134 159 144 95 316 106 165 170 168 173 179 185 188 189 185 184 183 183 183 179 176 174 174 176 183 186 187 186 188 187 211 217 209 212 207 202 197 210 260 296 301 299 306 304 306 312
359 162 158 160 219 136 126 162 196 174 177 172 178 183 194 193 191 190 192 190 190 187 184 181 185 187 191 200 193 186 191 195 210 220 214 206 196 192 197 208 258 289 301 316 314 312 310 315 324
288 350 71 153 182 167 182 165 164 186 195 186 181 184 192 188 191 191 192 196 193 191 190 190 190 194 196 199 195 200 199 213 221 206 193 193 192 201 214 240 287 323 328 321 318 314 312 317 322
264 100 155 191 193 114 212 151 164 186 198 191 189 191 195 198 198 195 196 197 194 193 197 197 198 198 198 199 203 206 216 218 205 195 195 197 203 209 226 285 324 325 321 318 313 311 313 314 315
15 344 350 308 223 147 175 153 216 182 189 193 193 194 198 201 202 201 200 198 199 197 201 204 202 201 204 212 216 219 233 217 205 200 200 204 212 221 239 281 302 310 313 311 310 311 313 312 313
336 277 271 253 358 47 103 35 244 263 230 206 207 205 202 205 204 204 203 203 203 202 203 206 205 207 212 217 218 219 222 205 201 205 212 213 217 225 246 275 291 302 307 310 308 309 309 307 308
331 96 249 257 111 155 77 231 265 223 231 227 220 206 207 208 210 211 208 206 206 207 208 206 207 209 212 216 220 226 227 217 216 220 219 224 228 235 259 276 289 298 302 306 308 303 301 300 305
241 338 282 65 109 103 33 94 269 155 230 241 231 221 210 214 209 210 214 214 210 208 211 210 210 212 214 218 223 229 224 230 226 223 224 226 230 239 261 278 288 299 310 314 308 308 312 307 305
263 74 23 37 61 49 234 142 272 190 213 225 232 229 224 211 216 216 218 216 215 213 214 211 213 216 217 219 224 230 235 228 223 226 226 229 233 243 259 275 290 303 320 309 297 299 303 305 311
95 78 328 357 13 215 31 77 238 239 223 218 210 226 231 224 217 211 217 218 218 218 218 215 217 220 219 222 225 230 237 239 234 236 234 230 236 244 257 273 293 313 307 291 289 293 303 310 314
191 159 157 218 189 255 27 237 256 250 283 281 259 235 226 228 220 213 218 220 222 222 223 220 221 228 223 223 226 230 237 238 235 234 232 233 233 243 257 267 305 317 293 294 292 293 296 302 310
149 154 174 107 358 49 242 290 311 324 335 110 174 188 208 217 219 220 217 225 222 224 228 223 230 231 227 224 232 231 233 228 230 228 227 231 236 244 244 277 313 292 297 298 293 293 287 294 308
144 163 79 17 150 244 278 277 238 316 303 137 159 204 215 215 216 220 224 227 226 228 227 228 234 235 238 237 235 227 221 223 225 228 228 230 240 240 264 296 291 292 292 308 304 290 294 313 318
112 205 57 119 133 177 212 261 216 228 293 293 284 212 212 212 213 218 220 224 221 224 222 226 232 229 233 232 231 229 224 222 219 224 227 231 237 256 260 272 281 293 310 294 292 288 300 307 320
174 191 139 127 212 171 164 269 244 237 273 283 273 285 249 217 215 216 215 214 219 223 227 231 232 234 239 234 229 227 227 223 224 224 231 240 242 238 254 249 291 302 300 297 285 287 303 315 314
Height
1507 1508 1509 1510 1520 1525 1526 1513 1498 1495 1493 1491 1486 1486 1492 1497 1499 1507 1498 1501 1506 1511 1515 1520 1524 1526 1529 1530 1531 1538 1539 1539 1542 1545 1545 1546 1548 1549 1551 1553 1554 1555 1558 1558 1559 1559 1559 1560 1561
1508 1509 1511 1511 1528 1535 1524 1505 1499 1492 1492 1493 1491 1490 1493 1500 1501 1502 1503 1506 1510 1513 1515 1521 1524 1527 1529 1531 1532 1536 1540 1542 1543 1546 1547 1547 1550 1551 1552 1554 1557 1558 1559 1561 1562 1560 1561 1562 1563
1508 1510 1513 1519 1533 1532 1524 1501 1493 1491 1494 1495 1499 1497 1499 1505 1505 1505 1506 1508 1510 1514 1517 1520 1523 1526 1529 1533 1535 1538 1541 1544 1544 1548 1549 1549 1552 1554 1554 1557 1558 1560 1560 1563 1564 1563 1563 1565 1565
1509 1512 1516 1524 1523 1514 1507 1498 1493 1494 1494 1496 1498 1500 1505 1507 1507 1508 1508 1510 1513 1514 1518 1522 1524 1527 1531 1533 1537 1540 1543 1545 1545 1550 1549 1554 1555 1556 1558 1558 1561 1560 1562 1564 1566 1566 1565 1567 1567
1510 1512 1522 1524 1516 1505 1499 1497 1494 1497 1497 1498 1499 1506 1507 1509 1508 1510 1511 1513 1516 1520 1522 1523 1525 1530 1532 1533 1538 1543 1545 1546 1548 1551 1553 1556 1559 1559 1560 1561 1563 1563 1565 1566 1568 1569 1568 1569 1569
1509 1512 1527 1528 1513 1500 1499 1497 1496 1496 1497 1499 1501 1506 1513 1511 1511 1511 1512 1515 1518 1521 1521 1523 1526 1529 1530 1534 1540 1543 1548 1548 1550 1554 1556 1558 1560 1561 1564 1565 1566 1565 1566 1568 1569 1570 1569 1570 1570
1509 1515 1522 1515 1511 1502 1499 1496 1496 1497 1499 1500 1501 1508 1513 1513 1514 1515 1514 1514 1518 1518 1517 1520 1521 1522 1525 1537 1542 1543 1546 1551 1555 1557 1558 1560 1561 1563 1565 1568 1567 1566 1567 1568 1569 1570 1571 1571 1570
1507 1511 1515 1512 1510 1503 1496 1493 1494 1497 1500 1502 1501 1506 1514 1514 1515 1515 1515 1516 1517 1523 1527 1527 1524 1524 1533 1539 1540 1546 1552 1554 1556 1558 1561 1562 1564 1566 1567 1568 1568 1568 1568 1568 1569 1571 1571 1571 1569
1509 1518 1522 1510 1506 1495 1493 1495 1495 1496 1499 1502 1503 1507 1512 1515 1517 1516 1516 1519 1519 1522 1524 1527 1528 1533 1539 1543 1548 1552 1555 1557 1559 1560 1563 1564 1565 1565 1567 1568 1568 1568 1568 1570 1570 1571 1571 1570 1571
1506 1517 1511 1500 1494 1494 1493 1495 1492 1498 1504 1509 1509 1512 1515 1517 1518 1518 1520 1520 1520 1525 1530 1531 1534 1540 1546 1552 1552 1553 1556 1559 1561 1562 1565 1567 1566 1568 1568 1570 1569 1569 1570 1570 1570 1571 1571 1571 1570
1502 1506 1498 1494 1492 1495 1494 1495 1497 1500 1506 1508 1509 1515 1518 1519 1520 1519 1523 1525 1526 1530 1535 1538 1541 1545 1548 1551 1553 1555 1556 1560 1563 1563 1566 1567 1568 1569 1569 1569 1570 1571 1571 1571 1571 1572 1571 1571 1570
1502 1495 1494 1491 1491 1494 1496 1497 1500 1502 1502 1504 1511 1514 1517 1519 1522 1523 1526 1526 1528 1530 1534 1539 1543 1546 1549 1551 1554 1558 1559 1561 1563 1564 1566 1568 1568 1569 1569 1570 1570 1573 1571 1571 1572 1571 1570 1570 1570
1498 1492 1490 1487 1490 1493 1496 1496 1501 1505 1505 1508 1513 1517 1518 1523 1523 1525 1527 1528 1530 1533 1535 1539 1543 1546 1549 1552 1555 1557 1559 1562 1565 1564 1566 1567 1568 1568 1568 1570 1570 1572 1572 1571 1572 1571 1569 1569 1569
1492 1491 1487 1487 1490 1497 1499 1500 1500 1512 1510 1511 1514 1517 1518 1520 1520 1522 1525 1527 1529 1533 1536 1540 1543 1546 1550 1552 1556 1557 1560 1563 1564 1565 1565 1567 1567 1569 1569 1569 1569 1571 1571 1572 1571 1571 1568 1568 1566
1490 1488 1489 1491 1491 1498 1496 1500 1506 1510 1513 1513 1516 1517 1519 1520 1522 1523 1525 1527 1530 1533 1537 1540 1544 1546 1550 1553 1555 1558 1559 1562 1564 1565 1565 1566 1567 1568 1569 1568 1568 1569 1571 1570 1570 1568 1568 1567 1567
1492 1493 1501 1493 1494 1498 1497 1511 1508 1510 1511 1514 1516 1518 1519 1520 1521 1525 1528 1531 1534 1537 1539 1543 1546 1547 1550 1552 1555 1557 1559 1561 1563 1564 1566 1566 1567 1567 1566 1567 1567 1569 1570 1568 1569 1567 1566 1566 1563
1500 1505 1501 1499 1494 1494 1499 1509 1506 1508 1511 1512 1515 1516 1518 1520 1522 1524 1527 1531 1534 1537 1540 1542 1545 1547 1549 1552 1555 1557 1559 1561 1563 1562 1564 1564 1565 1565 1565 1566 1568 1568 1567 1565 1564 1563 1563 1563 1560
1506 1503 1499 1501 1497 1494 1501 1506 1506 1508 1512 1511 1513 1516 1516 1518 1519 1522 1525 1529 1532 1535 1539 1540 1543 1546 1549 1552 1554 1557 1558 1560 1561 1561 1561 1563 1562 1564 1565 1565 1565 1565 1562 1562 1561 1561 1560 1559 1556
1497 1497 1500 1497 1493 1496 1500 1503 1505 1508 1511 1513 1513 1513 1513 1513 1516 1520 1525 1528 1531 1533 1537 1540 1543 1545 1546 1549 1552 1554 1556 1557 1558 1559 1560 1561 1562 1563 1563 1563 1562 1561 1560 1559 1558 1558 1557 1554 1553
1495 1497 1500 1494 1490 1491 1499 1505 1506 1505 1504 1506 1508 1509 1510 1514 1516 1518 1522 1526 1528 1531 1533 1537 1541 1543 1546 1549 1551 1554 1555 1556 1557 1557 1559 1560 1561 1561 1561 1560 1560 1559 1558 1557 1555 1554 1552 1551 1551
1497 1498 1500 1500 1494 1495 1500 1511 1508 1505 1505 1507 1507 1505 1508 1508 1509 1513 1517 1520 1525 1528 1529 1533 1536 1539 1543 1546 1549 1551 1553 1554 1554 1555 1556 1558 1559 1559 1558 1557 1557 1556 1555 1554 1553 1552 1550 1549 1549
1504 1492 1494 1495 1500 1512 1497 1527 1512 1504 1502 1503 1503 1505 1503 1505 1509 1512 1514 1515 1516 1522 1527 1528 1531 1535 1539 1542 1545 1547 1548 1550 1551 1553 1554 1555 1555 1556 1555 1554 1553 1552 1552 1554 1554 1551 1549 1548 1547
1498 1490 1491 1490 1503 1504 1505 1519 1509 1503 1505 1498 1494 1497 1501 1500 1501 1505 1508 1511 1515 1521 1524 1528 1530 1533 1536 1539 1541 1544 1545 1548 1549 1550 1551 1552 1553 1553 1552 1552 1551 1550 1550 1550 1549 1549 1547 1547 1545
1489 1491 1499 1503 1508 1527 1506 1515 1514 1509 1491 1486 1485 1489 1493 1496 1497 1500 1505 1510 1515 1518 1521 1525 1526 1529 1533 1536 1537 1538 1541 1543 1545 1546 1547 1548 1549 1549 1549 1548 1548 1548 1548 1549 1545 1544 1543 1543 1542
1491 1503 1522 1522 1534 1533 1506 1512 1503 1483 1480 1478 1478 1479 1483 1488 1494 1496 1500 1504 1509 1512 1516 1520 1523 1524 1527 1531 1532 1534 1536 1539 1541 1541 1543 1544 1545 1546 1545 1546 1546 1546 1546 1546 1544 1540 1540 1539 1538
1493 1500 1525 1525 1539 1519 1509 1514 1496 1475 1473 1474 1472 1474 1479 1482 1486 1490 1491 1499 1502 1508 1513 1517 1519 1520 1522 1525 1528 1529 1532 1534 1537 1539 1540 1541 1541 1542 1543 1543 1542 1542 1543 1541 1541 1539 1537 1537 1536
1493 1502 1500 1522 1533 1531 1517 1500 1483 1473 1472 1473 1470 1472 1474 1476 1479 1483 1489 1493 1498 1504 1508 1511 1515 1516 1518 1521 1523 1524 1526 1530 1532 1534 1536 1537 1538 1538 1538 1537 1534 1539 1541 1538 1537 1537 1536 1534 1533
1487 1492 1508 1518 1522 1525 1517 1508 1503 1480 1472 1473 1474 1472 1472 1474 1477 1481 1485 1489 1495 1499 1502 1506 1507 1509 1512 1514 1515 1518 1522 1524 1527 1528 1530 1532 1532 1532 1532 1532 1532 1535 1535 1534 1533 1532 1532 1531 1530
1493 1495 1499 1505 1519 1527 1535 1515 1484 1479 1470 1470 1469 1471 1472 1473 1475 1478 1481 1485 1490 1494 1496 1499 1502 1504 1505 1506 1509 1511 1514 1518 1522 1524 1527 1528 1529 1529 1528 1529 1529 1530 1530 1529 1528 1527 1527 1526 1525
1482 1487 1494 1520 1509 1528 1532 1512 1473 1472 1470 1470 1468 1469 1470 1473 1474 1477 1479 1482 1484 1488 1491 1492 1495 1497 1499 1502 1503 1506 1510 1514 1518 1521 1522 1523 1524 1524 1525 1526 1525 1526 1526 1525 1524 1523 1522 1521 1521